Location: St. Louis
(38.6270°N, 90.1994°W)
Time: 04:19:59
(UTC-05:00)

deb Delta - Pass Details

Date: 09 July 2022
Orbit: 1084 x 1202 km, 99.8° (Epoch: 15 August)

Event Time Altitude Azimuth Distance (km) Brightness Sun altitude
Exits shadow 01:33:30 44° 126° (SE) 1,593 ? -28.7°
Maximum altitude 01:35:38 61° 70° (ENE) 1,338 ? -28.6°
Drops below altitude 10° 01:42:37 10° 353° (N) 3,108 ? -28.4°
Sets 01:45:14 0° 350° (N) 4,061 ? -28.3°
